K0SDS Weather Reports


time (UTC)temp
C
wind
direction
speed
KPH
gust
KPH
rain 1hr
cm
rain 24hr
cm
rain mn
cm
humidity
%
barometer
mb
20260507170052 17 165 11.3 17.7 0.00 0.00 0.00 53 1014.6
20260507165547 16 259 14.5 14.5 0.00 0.00 0.00 54 1014.4
20260507165044 17 234 8.0 9.7 0.00 0.00 0.00 53 1014.5
20260507164540 17 274 11.3 14.5 0.00 0.00 0.00 53 1014.7
20260507164037 17 354 4.8 8.0 0.00 0.00 0.00 55 1014.9
20260507163535 16 114 8.0 11.3 0.00 0.00 0.00 58 1014.9
20260507163032 17 106 8.0 11.3 0.00 0.00 0.00 55 1014.9
20260507162527 16 233 12.9 20.9 0.00 0.00 0.00 56 1015.0
20260507162024 16 167 16.1 17.7 0.00 0.00 0.00 56 1015.0
20260507161521 16 266 17.7 24.1 0.00 0.00 0.00 55 1015.4
20260507161018 16 211 17.7 22.5 0.00 0.00 0.00 55 1015.4
20260507160514 16 202 9.7 16.1 0.00 0.00 0.00 55 1015.2
20260507160010 16 172 6.4 9.7 0.00 0.00 0.00 57 1015.3
20260507155505 16 253 4.8 9.7 0.00 0.00 0.00 58 1015.4
20260507155003 16 191 20.9 25.7 0.00 0.00 0.00 57 1015.2
20260507154459 15 283 11.3 17.7 0.00 0.00 0.00 61 1015.3
20260507153956 16 277 14.5 20.9 0.00 0.00 0.00 58 1015.3
20260507153453 16 257 17.7 20.9 0.00 0.00 0.00 57 1015.5
20260507152949 15 249 12.9 14.5 0.00 0.00 0.00 60 1015.4
20260507152445 15 181 8.0 16.1 0.00 0.00 0.00 61 1015.5
20260507151942 15 247 8.0 9.7 0.00 0.00 0.00 61 1015.7
20260507151438 15 261 8.0 11.3 0.00 0.00 0.00 64 1015.5
20260507150935 15 187 16.1 20.9 0.00 0.00 0.00 63 1015.6
20260507150432 15 238 11.3 16.1 0.00 0.00 0.00 63 1015.9
20260507145928 15 200 11.3 12.9 0.00 0.00 0.00 63 1015.7
20260507145424 15 225 11.3 16.1 0.00 0.00 0.00 64 1015.9
20260507144921 14 107 8.0 12.9 0.00 0.00 0.00 65 1016.0
20260507144418 14 192 8.0 9.7 0.00 0.00 0.00 65 1016.2
20260507143915 14 189 6.4 11.3 0.00 0.00 0.00 65 1016.1
20260507143413 13 43 6.4 9.7 0.00 0.00 0.00 66 1016.3
20260507142909 13 82 1.6 3.2 0.00 0.00 0.00 68 1015.9
20260507142405 13 235 9.7 11.3 0.00 0.00 0.00 68 1016.1
20260507141902 12 272 9.7 11.3 0.00 0.00 0.00 67 1016.0
20260507141358 12 260 12.9 16.1 0.00 0.00 0.00 68 1016.0
20260507140855 12 251 11.3 14.5 0.00 0.00 0.00 69 1016.2
20260507140352 12 260 8.0 11.3 0.00 0.00 0.00 70 1016.2
20260507135850 12 158 8.0 11.3 0.00 0.00 0.00 72 1016.2
20260507135346 11 215 4.8 4.8 0.00 0.00 0.00 73 1016.0
20260507134844 11 253 6.4 9.7 0.00 0.00 0.00 73 1016.4
20260507134340 11 229 6.4 9.7 0.00 0.00 0.00 75 1016.2
20260507133836 11 119 4.8 4.8 0.00 0.00 0.00 75 1016.2
20260507133331 11 246 4.8 4.8 0.00 0.00 0.00 76 1016.2
20260507132830 11 149 6.4 8.0 0.00 0.00 0.00 76 1016.2
20260507132326 11 240 4.8 8.0 0.00 0.00 0.00 78 1016.0
20260507131824 10 90 1.6 1.6 0.00 0.00 0.00 79 1016.1
20260507131320 10 186 4.8 4.8 0.00 0.00 0.00 80 1016.2
20260507130817 10 153 3.2 3.2 0.00 0.00 0.00 81 1016.1
20260507130314 10 179 6.4 8.0 0.00 0.00 0.00 80 1016.5
20260507125813 10 89 0.0 0.0 0.00 0.00 0.00 81 1016.4
20260507125310 9 99 3.2 3.2 0.00 0.00 0.00 82 1016.3
20260507124807 9 166 4.8 4.8 0.00 0.00 0.00 83 1016.2
20260507124303 8 144 4.8 4.8 0.00 0.00 0.00 83 1016.1
20260507123802 8 100 1.6 3.2 0.00 0.00 0.00 84 1016.4
20260507123259 8 95 3.2 3.2 0.00 0.00 0.00 86 1016.4
20260507122755 7 101 1.6 1.6 0.00 0.00 0.00 88 1016.3
20260507122250 7 99 1.6 3.2 0.00 0.00 0.00 88 1016.3
20260507121746 6 88 1.6 1.6 0.00 0.00 0.00 88 1016.7
20260507121242 6 84 0.0 1.6 0.00 0.00 0.00 88 1016.5
20260507120738 6 86 0.0 0.0 0.00 0.00 0.00 88 1016.3
20260507120236 6 87 0.0 0.0 0.00 0.00 0.00 88 1016.3
20260507115732 6 88 1.6 1.6 0.00 0.00 0.00 87 1016.4
20260507115228 6 94 1.6 1.6 0.00 0.00 0.00 87 1016.1
20260507114723 6 127 3.2 3.2 0.00 0.00 0.00 87 1016.3
20260507114221 6 89 1.6 1.6 0.00 0.00 0.00 88 1016.4
20260507113718 6 125 3.2 3.2 0.00 0.00 0.00 88 1016.3
20260507113215 6 103 3.2 3.2 0.00 0.00 0.00 88 1016.2
20260507112713 6 110 3.2 3.2 0.00 0.00 0.00 89 1016.3
20260507112210 6 100 1.6 3.2 0.00 0.00 0.00 90 1016.5
20260507111707 5 93 0.0 0.0 0.00 0.00 0.00 90 1016.3
20260507111204 5 80 0.0 0.0 0.00 0.00 0.00 90 1016.5
20260507110659 5 78 0.0 0.0 0.00 0.00 0.00 90 1016.3
20260507110156 5 81 0.0 0.0 0.00 0.00 0.00 89 1016.0
20260507105654 6 101 1.6 1.6 0.00 0.00 0.00 89 1016.3
20260507105149 6 56 3.2 3.2 0.00 0.00 0.00 89 1016.1
20260507104647 6 79 0.0 0.0 0.00 0.00 0.00 89 1015.9
20260507104143 6 77 0.0 0.0 0.00 0.00 0.00 88 1016.2
20260507103639 6 81 0.0 0.0 0.00 0.00 0.00 88 1016.0
20260507103136 6 86 1.6 1.6 0.00 0.00 0.00 89 1016.2
20260507102632 6 81 0.0 0.0 0.00 0.00 0.00 88 1016.3
20260507102128 6 83 0.0 0.0 0.00 0.00 0.00 89 1016.3
20260507101625 6 81 0.0 0.0 0.00 0.00 0.00 89 1016.4
20260507101121 6 82 0.0 0.0 0.00 0.00 0.00 89 1016.1
20260507100618 6 80 0.0 0.0 0.00 0.00 0.00 89 1016.2
20260507100116 6 78 0.0 1.6 0.00 0.00 0.00 90 1016.3
20260507095614 6 79 1.6 1.6 0.00 0.00 0.00 90 1016.2
20260507095110 5 77 0.0 1.6 0.00 0.00 0.00 90 1016.3
20260507094606 5 74 1.6 1.6 0.00 0.00 0.00 90 1016.3
20260507094103 5 72 1.6 1.6 0.00 0.00 0.00 89 1016.5
20260507093601 5 70 0.0 0.0 0.00 0.00 0.00 89 1016.4
20260507093100 5 75 0.0 0.0 0.00 0.00 0.00 89 1016.3
20260507092555 5 78 1.6 1.6 0.00 0.00 0.00 89 1016.3
20260507092052 5 84 0.0 0.0 0.00 0.00 0.00 88 1016.4
20260507091549 6 77 0.0 1.6 0.00 0.00 0.00 88 1016.4
20260507091045 6 80 0.0 0.0 0.00 0.00 0.00 87 1016.4
20260507090541 6 80 0.0 0.0 0.00 0.00 0.00 87 1016.5
20260507090038 6 74 1.6 1.6 0.00 0.00 0.00 86 1016.7
20260507085535 6 77 0.0 0.0 0.00 0.00 0.00 86 1016.5
20260507085032 6 80 0.0 0.0 0.00 0.00 0.00 85 1016.8
20260507084528 6 81 0.0 0.0 0.00 0.00 0.00 84 1016.7
20260507084026 6 79 0.0 0.0 0.00 0.00 0.00 84 1016.5
20260507083522 6 78 0.0 0.0 0.00 0.00 0.00 84 1016.5
20260507083019 6 81 0.0 1.6 0.00 0.00 0.00 83 1016.5
20260507082515 6 80 0.0 0.0 0.00 0.00 0.00 82 1016.8
20260507082011 7 77 1.6 1.6 0.00 0.00 0.00 82 1016.9
20260507081508 7 87 0.0 0.0 0.00 0.00 0.00 82 1016.8
20260507081005 6 82 0.0 0.0 0.00 0.00 0.00 82 1016.8
20260507080500 6 39 4.8 4.8 0.00 0.00 0.00 82 1016.9
20260507075956 7 152 3.2 3.2 0.00 0.00 0.00 81 1016.8
20260507075453 6 71 1.6 1.6 0.00 0.00 0.00 83 1016.7
20260507074949 6 68 1.6 1.6 0.00 0.00 0.00 84 1016.9
20260507074446 6 55 1.6 3.2 0.00 0.00 0.00 85 1016.7
20260507073944 6 72 0.0 0.0 0.00 0.00 0.00 84 1016.8
20260507073440 6 78 0.0 0.0 0.00 0.00 0.00 82 1016.8
20260507072937 6 80 0.0 0.0 0.00 0.00 0.00 81 1016.9
20260507072434 6 79 1.6 1.6 0.00 0.00 0.00 82 1016.9
20260507071932 6 80 0.0 0.0 0.00 0.00 0.00 82 1016.8
20260507071429 6 80 0.0 0.0 0.00 0.00 0.00 82 1016.9
20260507070925 6 74 0.0 0.0 0.00 0.00 0.00 83 1017.0
20260507070422 6 77 0.0 1.6 0.00 0.00 0.00 83 1017.0
20260507065919 6 81 0.0 0.0 0.00 0.00 0.00 82 1017.3
20260507065415 6 78 0.0 0.0 0.00 0.00 0.00 81 1017.3
20260507064907 7 81 0.0 0.0 0.00 0.00 0.00 80 1017.6
20260507064406 7 80 0.0 0.0 0.00 0.00 0.00 79 1017.4
20260507063903 7 78 0.0 1.6 0.00 0.00 0.00 77 1017.3
20260507063400 7 79 1.6 1.6 0.00 0.00 0.00 77 1017.4
20260507062857 7 79 0.0 0.0 0.00 0.00 0.00 76 1017.5
20260507062353 7 79 0.0 0.0 0.00 0.00 0.00 76 1017.2
20260507061851 8 77 1.6 1.6 0.00 0.00 0.00 74 1017.7
20260507061349 8 81 0.0 1.6 0.00 0.00 0.00 73 1017.6
20260507060848 8 83 1.6 1.6 0.00 0.00 0.00 71 1017.7
20260507060344 9 83 0.0 1.6 0.00 0.00 0.00 69 1017.4
20260507055841 9 87 0.0 0.0 0.00 0.00 0.00 64 1017.7
20260507055335 10 92 1.6 1.6 0.00 0.00 0.00 64 1017.6
20260507054833 10 107 1.6 3.2 0.00 0.00 0.00 64 1017.5
20260507054329 10 98 3.2 3.2 0.00 0.00 0.00 65 1017.8
20260507053826 10 93 1.6 3.2 0.00 0.00 0.00 64 1017.5
20260507053324 9 89 1.6 1.6 0.00 0.00 0.00 64 1017.5
20260507052822 9 90 1.6 1.6 0.00 0.00 0.00 65 1017.6
20260507052319 9 94 1.6 3.2 0.00 0.00 0.00 66 1017.5
20260507051817 9 110 3.2 3.2 0.00 0.00 0.00 66 1017.5
20260507051314 9 97 1.6 1.6 0.00 0.00 0.00 68 1017.6
20260507050811 8 111 3.2 3.2 0.00 0.00 0.00 68 1017.6
20260507050307 8 98 1.6 1.6 0.00 0.00 0.00 70 1017.7
20260507045804 8 91 1.6 1.6 0.00 0.03 0.03 74 1017.3
20260507045300 7 82 1.6 1.6 0.00 0.03 0.03 82 1017.4
20260507044757 8 87 0.0 0.0 0.00 0.03 0.03 84 1017.5
20260507044254 8 90 0.0 1.6 0.00 0.03 0.03 75 1017.5
20260507043750 8 89 1.6 1.6 0.00 0.03 0.03 71 1017.5
20260507043247 8 91 1.6 1.6 0.00 0.03 0.03 73 1017.5
20260507042743 7 93 0.0 1.6 0.00 0.03 0.03 76 1017.5
20260507042238 7 87 0.0 0.0 0.00 0.03 0.03 80 1017.5
20260507041736 7 86 0.0 0.0 0.00 0.03 0.03 81 1017.4
20260507041232 7 86 0.0 0.0 0.00 0.03 0.03 81 1017.5
20260507040730 7 86 0.0 0.0 0.00 0.03 0.03 82 1017.5
20260507040225 7 86 0.0 0.0 0.00 0.03 0.03 83 1017.4
20260507035722 7 88 0.0 1.6 0.00 0.03 0.03 83 1017.4
20260507035217 7 83 0.0 0.0 0.00 0.03 0.03 84 1017.4
20260507034715 7 84 0.0 0.0 0.00 0.03 0.03 84 1017.8
20260507034212 7 85 0.0 0.0 0.00 0.03 0.03 84 1017.3
20260507033710 6 86 0.0 0.0 0.00 0.03 0.03 85 1017.7
20260507033207 6 85 0.0 0.0 0.00 0.03 0.03 84 1017.8
20260507032705 6 82 0.0 0.0 0.00 0.03 0.03 83 1017.7
20260507032200 6 83 0.0 0.0 0.00 0.03 0.03 83 1017.7
20260507031657 6 83 0.0 0.0 0.00 0.03 0.03 82 1017.9
20260507031154 6 85 0.0 0.0 0.00 0.03 0.03 82 1017.7
20260507030650 6 86 0.0 0.0 0.00 0.03 0.03 82 1017.7
20260507030149 6 83 0.0 0.0 0.00 0.03 0.03 80 1017.4
20260507025645 6 83 0.0 0.0 0.00 0.03 0.03 79 1017.5
20260507025142 6 84 0.0 0.0 0.00 0.03 0.03 78 1017.4
20260507024640 6 83 0.0 0.0 0.00 0.03 0.03 77 1017.4
20260507024137 7 85 0.0 0.0 0.00 0.03 0.03 77 1017.3
20260507023632 7 82 0.0 0.0 0.00 0.03 0.03 77 1017.3
20260507023130 7 82 0.0 0.0 0.00 0.03 0.03 76 1017.3
20260507022627 7 82 0.0 0.0 0.00 0.03 0.03 76 1017.5
20260507022122 7 81 0.0 0.0 0.00 0.03 0.03 75 1017.3
20260507021619 7 84 0.0 0.0 0.00 0.03 0.03 74 1017.3
20260507021115 8 83 0.0 0.0 0.00 0.03 0.03 72 1017.0
20260507020613 8 79 0.0 0.0 0.00 0.03 0.03 71 1017.0
20260507020109 8 85 0.0 0.0 0.00 0.03 0.03 69 1017.1
20260507015608 8 80 0.0 0.0 0.00 0.03 0.03 66 1017.0
20260507015105 8 79 0.0 0.0 0.00 0.03 0.03 67 1016.9
20260507014602 9 81 0.0 1.6 0.00 0.03 0.03 66 1016.9
20260507014057 9 81 0.0 0.0 0.00 0.03 0.03 68 1016.5
20260507013554 10 81 0.0 0.0 0.00 0.03 0.03 63 1016.7
20260507013051 10 79 0.0 0.0 0.00 0.03 0.03 61 1016.9
20260507012548 10 80 0.0 0.0 0.00 0.03 0.03 61 1016.8
20260507012044 11 82 0.0 0.0 0.00 0.03 0.03 61 1016.8
20260507011542 11 79 0.0 1.6 0.00 0.03 0.03 59 1016.9
20260507011032 12 85 0.0 0.0 0.00 0.03 0.03 62 1016.8
20260507010532 12 80 1.6 1.6 0.00 0.03 0.03 57 1016.8
20260507010024 12 69 1.6 3.2 0.00 0.03 0.03 59 1016.8
20260507005521 13 84 0.0 0.0 0.00 0.03 0.03 51 1016.9
20260507005017 14 81 0.0 0.0 0.00 0.03 0.03 47 1016.8
20260507004514 14 84 0.0 0.0 0.00 0.03 0.03 42 1016.5
20260507004012 15 77 0.0 1.6 0.00 0.03 0.03 37 1016.7
20260507003507 15 81 0.0 1.6 0.00 0.03 0.03 38 1016.7
20260507003002 16 87 0.0 0.0 0.00 0.03 0.03 35 1016.7
20260507002459 16 96 0.0 0.0 0.00 0.03 0.03 37 1016.7
20260507001955 16 87 0.0 0.0 0.00 0.03 0.03 36 1016.4
20260507001451 16 62 1.6 3.2 0.00 0.03 0.03 35 1016.3
20260507000944 16 77 1.6 1.6 0.00 0.03 0.03 38 1016.5
20260507000439 16 77 0.0 1.6 0.00 0.03 0.03 38 1016.7
20260506235935 16 90 0.0 0.0 0.00 0.03 0.03 36 1016.5
20260506235433 16 80 0.0 0.0 0.00 0.03 0.03 38 1016.7
20260506234927 16 60 1.6 1.6 0.00 0.03 0.03 36 1016.8
20260506234426 16 42 3.2 3.2 0.00 0.03 0.03 36 1016.8
20260506233923 16 72 3.2 3.2 0.00 0.03 0.03 35 1016.8
20260506233419 16 22 4.8 4.8 0.00 0.03 0.03 36 1016.7
20260506232916 16 54 4.8 8.0 0.00 0.03 0.03 34 1016.7
20260506232412 16 218 6.4 8.0 0.00 0.03 0.03 33 1016.7
20260506231908 16 54 1.6 3.2 0.00 0.03 0.03 33 1016.8
20260506231406 16 7 1.6 3.2 0.00 0.03 0.03 33 1016.8
20260506230903 16 76 3.2 3.2 0.00 0.03 0.03 34 1016.9
20260506230359 16 109 1.6 3.2 0.00 0.03 0.03 35 1017.1
20260506225855 16 10 3.2 3.2 0.00 0.03 0.03 36 1017.0
20260506225353 16 89 1.6 1.6 0.00 0.03 0.03 38 1017.0
20260506224850 16 328 6.4 8.0 0.00 0.03 0.03 39 1016.8
20260506224347 16 291 6.4 8.0 0.00 0.03 0.03 35 1017.1
20260506223843 16 248 4.8 8.0 0.00 0.03 0.03 35 1016.8
20260506223338 16 87 0.0 1.6 0.00 0.03 0.03 35 1016.8
20260506222836 17 79 1.6 1.6 0.00 0.03 0.03 35 1017.1
20260506222331 16 101 3.2 3.2 0.00 0.03 0.03 37 1017.0
20260506221825 17 67 3.2 4.8 0.00 0.03 0.03 39 1017.1
20260506221322 16 88 1.6 3.2 0.00 0.03 0.03 39 1016.9
20260506220819 16 96 1.6 3.2 0.00 0.03 0.03 40 1017.2
20260506220314 17 26 1.6 1.6 0.00 0.03 0.03 39 1017.0
20260506215811 17 72 1.6 1.6 0.00 0.03 0.03 35 1017.1
20260506215307 17 56 3.2 3.2 0.00 0.03 0.03 38 1017.2
20260506214803 17 84 1.6 3.2 0.00 0.03 0.03 37 1017.2
20260506214300 16 95 3.2 3.2 0.00 0.03 0.03 37 1017.0
20260506213758 17 70 3.2 4.8 0.00 0.03 0.03 34 1017.5
20260506213255 16 359 4.8 4.8 0.00 0.03 0.03 34 1017.3
20260506212752 17 51 1.6 3.2 0.00 0.03 0.03 38 1017.4
20260506212248 17 26 3.2 3.2 0.00 0.03 0.03 39 1017.6
20260506211743 17 311 9.7 14.5 0.00 0.03 0.03 36 1017.6
20260506211240 17 100 1.6 3.2 0.00 0.03 0.03 42 1017.6
20260506210737 17 81 1.6 3.2 0.00 0.03 0.03 36 1017.5
20260506210234 17 64 3.2 4.8 0.00 0.03 0.03 37 1017.7
20260506205731 17 21 4.8 8.0 0.00 0.03 0.03 38 1018.0
20260506205226 17 270 4.8 11.3 0.00 0.03 0.03 36 1018.0
20260506204723 16 82 4.8 8.0 0.00 0.03 0.03 35 1017.9
20260506204221 16 13 8.0 9.7 0.00 0.03 0.03 35 1017.9
20260506203719 16 234 8.0 9.7 0.00 0.03 0.03 35 1018.4
20260506203216 16 120 1.6 3.2 0.00 0.03 0.03 37 1018.2
20260506202713 16 75 1.6 3.2 0.00 0.03 0.03 44 1018.3
20260506202208 17 59 0.0 1.6 0.00 0.03 0.03 36 1018.4
20260506201701 16 79 3.2 4.8 0.00 0.03 0.03 41 1018.5
20260506201157 16 271 3.2 3.2 0.00 0.03 0.03 40 1018.7
20260506200654 16 140 3.2 3.2 0.00 0.03 0.03 41 1018.5
20260506200151 15 121 4.8 4.8 0.00 0.03 0.03 37 1018.5
20260506195647 16 168 3.2 3.2 0.00 0.03 0.03 37 1018.6
20260506195143 16 251 9.7 11.3 0.00 0.03 0.03 38 1018.5
20260506194641 16 249 8.0 12.9 0.00 0.03 0.03 36 1018.4
20260506194137 16 250 0.0 3.2 0.00 0.03 0.03 42 1018.5
20260506193635 15 87 3.2 3.2 0.00 0.03 0.03 38 1018.8
20260506193132 16 258 6.4 8.0 0.00 0.03 0.03 41 1018.6
20260506192629 16 66 3.2 3.2 0.00 0.03 0.03 36 1018.6
20260506192125 16 349 3.2 4.8 0.00 0.03 0.03 38 1018.4
20260506191622 15 353 3.2 4.8 0.00 0.03 0.03 36 1018.7
20260506191117 15 87 1.6 1.6 0.00 0.03 0.03 36 1018.7
20260506190615 15 23 3.2 4.8 0.00 0.03 0.03 38 1018.6
20260506190112 15 77 1.6 3.2 0.00 0.03 0.03 34 1018.6
20260506185609 15 33 4.8 8.0 0.00 0.03 0.03 33 1018.4
20260506185105 15 38 1.6 3.2 0.00 0.03 0.03 35 1018.7
20260506184603 15 160 4.8 4.8 0.00 0.03 0.03 35 1018.8
20260506184100 16 92 1.6 1.6 0.00 0.03 0.03 35 1018.6
20260506183556 16 84 4.8 8.0 0.00 0.03 0.03 37 1018.7
20260506183052 15 123 1.6 3.2 0.00 0.03 0.03 40 1018.7
20260506182550 15 91 3.2 3.2 0.00 0.03 0.03 39 1018.8
20260506182047 15 20 3.2 3.2 0.00 0.03 0.03 38 1019.3
20260506181545 15 237 3.2 4.8 0.00 0.03 0.03 37 1019.1
20260506181041 15 119 3.2 3.2 0.00 0.03 0.03 40 1019.0
20260506180537 15 33 6.4 9.7 0.00 0.03 0.03 39 1019.0
20260506180029 15 169 3.2 4.8 0.00 0.03 0.03 43 1019.0
20260506175525 15 16 4.8 8.0 0.00 0.03 0.03 35 1019.2
20260506175022 14 104 1.6 1.6 0.00 0.03 0.03 45 1019.0
20260506174520 15 84 0.0 1.6 0.00 0.03 0.03 38 1019.2
20260506174010 15 75 4.8 4.8 0.00 0.03 0.03 44 1019.3
20260506173508 14 49 4.8 8.0 0.00 0.03 0.03 41 1019.4
20260506173005 14 71 0.0 0.0 0.00 0.03 0.03 44 1019.2
20260506172502 15 60 1.6 3.2 0.00 0.03 0.03 42 1019.2
20260506171958 13 87 0.0 1.6 0.00 0.03 0.03 40 1019.4
20260506171456 13 44 4.8 4.8 0.00 0.03 0.03 40 1019.3
20260506170953 14 30 3.2 8.0 0.00 0.03 0.03 40 1019.5
20260506170449 14 110 3.2 3.2 0.00 0.03 0.03 42 1019.5